Weather History for Vicksburg, MS

Change the Weather History Date:

Friday, January 17, 2014

  Actual Average Record
Temperature  
Mean Temperature 38 °F 45 °F  
Max Temperature 52 °F 55 °F 74 °F (1950)
Min Temperature 24 °F 35 °F 12 °F (1977)
Degree Days  
Heating Degree Days 27 20  
Month to date heating degree days 381 339  
Since 1 July heating degree days 1506 1276  
Cooling Degree Days 0 0  
Month to date cooling degree days 0 0  
Year to date cooling degree days 0 0  
Moisture  
Dew Point 19 °F    
Average Humidity 49    
Maximum Humidity 81    
Minimum Humidity 16    
Precipitation  
Precipitation 0.00 in 0.15 in 2.10 in (1994)
Month to date precipitation 2.26 2.64  
Year to date precipitation 2.26 2.64  
Sea Level Pressure  
Sea Level Pressure 30.21 in    
Wind  
Wind Speed 9 mph (WNW)    
Max Wind Speed 21 mph    
Max Gust Speed 29 mph    
Visibility 10 miles    
Events      
T = Trace of Precipitation, MM = Missing Value Source: NWS Daily Summary

Daily Weather History Graph

Daily Weather History Graph

Search for Another Location

Airport:

Trip Planner

Search our weather history database for the weather conditions in past years. The results will help you decide how hot, cold, wet, or windy it might be!

Date:

Astronomy

Jan. 17, 2014 Rise Set
Actual Time 7:05 AM CST 5:23 PM CST
Civil Twilight 6:38 AM CST 5:50 PM CST
Nautical Twilight 6:08 AM CST 6:20 PM CST
Astronomical Twilight 5:39 AM CST 6:49 PM CST
Moon 7:01 PM CST (1/17) 7:40 AM CST (1/17)
Length of Visible Light 11h 11m
Length of Day
10h 18m
Full, 98% of the Moon is Illuminated
Jan 17
Full
Jan 23
Last Quarter
Jan 30
New
Feb 6
First Quarter
Feb 14
Full

Hourly Weather History & Observations

Time (CST) Temp. Windchill Dew Point Humidity Pressure Visibility Wind Dir Wind Speed Gust Speed Precip Events Conditions
12:53 AM 46.0 °F 42.5 °F 33.1 °F 61% 30.08 in 10.0 mi West 6.9 mph - N/A   Clear
1:53 AM 46.0 °F 42.5 °F 33.1 °F 61% 30.10 in 10.0 mi West 6.9 mph - N/A   Clear
2:53 AM 44.1 °F 40.8 °F 32.0 °F 63% 30.10 in 10.0 mi West 5.8 mph - N/A   Clear
3:53 AM 45.0 °F 40.6 °F 28.9 °F 53% 30.12 in 10.0 mi West 8.1 mph - N/A   Clear
4:53 AM 46.9 °F - 27.0 °F 46% 30.14 in 10.0 mi NW 8.1 mph - N/A   Clear
5:53 AM 46.0 °F 42.5 °F 24.1 °F 42% 30.16 in 10.0 mi NW 6.9 mph - N/A   Partly Cloudy
6:53 AM 45.0 °F 41.2 °F 23.0 °F 42% 30.18 in 10.0 mi WNW 6.9 mph - N/A   Clear
7:53 AM 46.0 °F 39.3 °F 17.1 °F 31% 30.19 in 10.0 mi NW 16.1 mph 24.2 mph N/A   Clear
8:53 AM 45.0 °F 38.2 °F 18.0 °F 34% 30.24 in 10.0 mi NW 15.0 mph 25.3 mph N/A   Clear
9:53 AM 46.9 °F - 19.0 °F 33% 30.26 in 10.0 mi NW 13.8 mph 23.0 mph N/A   Clear
10:53 AM 48.9 °F - 17.1 °F 28% 30.26 in 10.0 mi NW 15.0 mph 19.6 mph N/A   Clear
11:53 AM 51.1 °F - 12.0 °F 21% 30.23 in 10.0 mi NW 13.8 mph 21.9 mph N/A   Clear
12:53 PM 51.1 °F - 9.0 °F 18% 30.22 in 10.0 mi WNW 15.0 mph - N/A   Clear
1:53 PM 52.0 °F - 10.0 °F 19% 30.22 in 10.0 mi NW 18.4 mph 25.3 mph N/A   Clear
2:53 PM 51.1 °F - 6.1 °F 16% 30.22 in 10.0 mi WNW 12.7 mph 26.5 mph N/A   Clear
3:53 PM 50.0 °F - 7.0 °F 18% 30.22 in 10.0 mi WNW 11.5 mph 20.7 mph N/A   Clear
4:53 PM 48.0 °F - 10.9 °F 22% 30.24 in 10.0 mi NW 9.2 mph 17.3 mph N/A   Clear
5:53 PM 43.0 °F 38.8 °F 12.9 °F 30% 30.25 in 10.0 mi NW 6.9 mph - N/A   Clear
6:53 PM 36.0 °F 32.1 °F 15.1 °F 43% 30.27 in 10.0 mi WNW 4.6 mph - N/A   Clear
7:53 PM 30.0 °F 25.2 °F 24.1 °F 79% 30.27 in 10.0 mi NW 4.6 mph - N/A   Clear
8:53 PM 26.1 °F 20.5 °F 21.0 °F 81% 30.28 in 10.0 mi WNW 4.6 mph - N/A   Clear
9:53 PM 28.0 °F 22.8 °F 16.0 °F 61% 30.29 in 10.0 mi West 4.6 mph - N/A   Clear
10:53 PM 26.1 °F 20.5 °F 17.1 °F 69% 30.29 in 10.0 mi West 4.6 mph - N/A   Clear
11:53 PM 24.1 °F 19.7 °F 18.0 °F 77% 30.29 in 10.0 mi West 3.5 mph - N/A   Clear